Dumas, TX

7:07 AM CDT on July 22, 2017 (GMT -0500)
Moore County

Weather History for KDUX - August, 2013

Change the Weather History Date:

Thursday, August 1, 2013

  Actual Average (KDHT) Record (KDHT)
Temperature  
Mean Temperature 76 °F -  
Max Temperature 90 °F 89 °F 103 °F (2003)
Min Temperature 63 °F 62 °F 55 °F (1973)
Cooling Degree Days 12    
Growing Degree Days 26 (Base 50)    
Moisture  
Dew Point 64 °F    
Average Humidity 68    
Maximum Humidity 96    
Minimum Humidity 41    
Precipitation  
Precipitation 0.00 in - - ()
Sea Level Pressure  
Sea Level Pressure 30.15 in    
Wind  
Wind Speed 10 mph (South)    
Max Wind Speed 22 mph    
Max Gust Speed 29 mph    
Visibility 10 miles    
Events      
Averages and records for this station are not official NWS values.
T = Trace of Precipitation, MM = Missing Value Source: NWS Daily Summary

Daily Weather History Graph

Daily Weather History Graph

Search for Another Location

Airport or City:

Trip Planner

Search our weather history database for the weather conditions in past years. The results will help you decide how hot, cold, wet, or windy it might be!

Date:

Astronomy

Aug. 01, 2013 Rise Set
Actual Time 6:55 AM CDT 8:52 PM CDT
Civil Twilight 6:27 AM CDT 9:20 PM CDT
Nautical Twilight 5:53 AM CDT 9:54 PM CDT
Astronomical Twilight 5:16 AM CDT 10:30 PM CDT
Moon 2:34 AM CDT (8/1) 5:01 PM CDT (8/1)
Length of Visible Light 14h 52m
Length of Day
13h 56m
Waning Crescent, 23% of the Moon is Illuminated
Aug 1
Waning Crescent
Aug 6
New
Aug 14
First Quarter
Aug 20
Full
Aug 28
Last Quarter

Hourly Weather History & Observations

Time (CDT) Temp. Heat Index Dew Point Humidity Pressure Visibility Wind Dir Wind Speed Gust Speed Precip Events Conditions
1:15 AM 64.0 °F - 59.4 °F 85% 30.24 in 10.0 mi ESE 10.4 mph - N/A   Unknown
1:35 AM 63.7 °F - 59.9 °F 87% 30.22 in 10.0 mi SE 9.2 mph - N/A   Clear
1:55 AM 66.2 °F - 59.7 °F 80% 30.21 in 10.0 mi SE 8.1 mph - N/A   Clear
2:15 AM 66.9 °F - 59.7 °F 78% 30.21 in 10.0 mi South 9.2 mph - N/A   Clear
2:35 AM 68.0 °F - 59.2 °F 73% 30.20 in 10.0 mi South 10.4 mph - N/A   Clear
2:55 AM 66.6 °F - 60.8 °F 82% 30.20 in 10.0 mi SE 5.8 mph - N/A   Clear
3:15 AM 68.0 °F - 61.7 °F 80% 30.19 in 10.0 mi SSW 5.8 mph - N/A   Clear
3:35 AM 67.5 °F - 62.1 °F 83% 30.19 in 10.0 mi SW 6.9 mph - N/A   Clear
3:55 AM 67.5 °F - 62.4 °F 84% 30.19 in 10.0 mi SW 6.9 mph - N/A   Clear
4:15 AM 66.9 °F - 62.6 °F 86% 30.19 in 10.0 mi SW 6.9 mph - N/A   Clear
4:35 AM 67.1 °F - 63.5 °F 88% 30.19 in 10.0 mi SSW 4.6 mph - N/A   Clear
4:55 AM 66.6 °F - 63.7 °F 90% 30.19 in 10.0 mi WSW 8.1 mph - N/A   Clear
5:15 AM 65.8 °F - 63.5 °F 92% 30.20 in 10.0 mi Calm Calm - N/A   Clear
5:35 AM 64.6 °F - 63.0 °F 94% 30.20 in 10.0 mi South 4.6 mph - N/A   Clear
5:55 AM 64.4 °F - 63.1 °F 96% 30.21 in 10.0 mi East 5.8 mph - N/A   Clear
6:15 AM 64.9 °F - 63.5 °F 95% 30.22 in 10.0 mi ESE 5.8 mph - N/A   Clear
6:35 AM 64.9 °F - 63.5 °F 95% 30.22 in 10.0 mi ESE 6.9 mph - N/A   Clear
6:55 AM 64.6 °F - 63.3 °F 96% 30.23 in 10.0 mi ESE 4.6 mph - N/A   Clear
7:15 AM 64.4 °F - 63.1 °F 96% 30.24 in 7.0 mi ESE 4.6 mph - N/A   Scattered Clouds
7:35 AM 66.4 °F - 64.4 °F 93% 30.24 in 10.0 mi Calm Calm - N/A   Clear
7:55 AM 69.3 °F - 66.2 °F 90% 30.24 in 10.0 mi Calm Calm - N/A   Clear
8:15 AM 70.9 °F - 66.2 °F 85% 30.24 in 10.0 mi ESE 3.5 mph - N/A   Clear
8:35 AM 70.7 °F - 66.4 °F 86% 30.24 in 10.0 mi SE 5.8 mph - N/A   Clear
8:55 AM 70.9 °F - 66.9 °F 87% 30.23 in 10.0 mi SE 5.8 mph - N/A   Clear
9:15 AM 72.7 °F - 67.5 °F 84% 30.23 in 10.0 mi SSE 8.1 mph - N/A   Clear
9:35 AM 72.7 °F - 67.3 °F 83% 30.24 in 10.0 mi SSE 9.2 mph - N/A   Clear
9:55 AM 73.4 °F - 67.3 °F 81% 30.24 in 10.0 mi SSE 9.2 mph - N/A   Clear
10:15 AM 76.3 °F - 68.2 °F 76% 30.22 in 10.0 mi South 11.5 mph - N/A   Clear
10:35 AM 75.2 °F - 67.1 °F 76% 30.23 in 10.0 mi South 12.7 mph - N/A   Scattered Clouds
10:55 AM 76.5 °F - 67.5 °F 74% 30.22 in 10.0 mi South 11.5 mph - N/A   Clear
11:15 AM 78.1 °F - 67.5 °F 70% 30.22 in 10.0 mi South 11.5 mph - N/A   Clear
11:35 AM 78.8 °F - 67.5 °F 68% 30.22 in 7.0 mi South 11.5 mph - N/A   Clear
11:55 AM 79.7 °F - 67.6 °F 66% 30.21 in 10.0 mi SSW 13.8 mph 17.3 mph N/A   Clear
12:15 PM 80.8 °F 83.3 °F 67.6 °F 64% 30.20 in 5.0 mi SSW 13.8 mph 17.3 mph N/A   Haze
12:35 PM 82.0 °F 85.1 °F 68.2 °F 63% 30.19 in 10.0 mi South 13.8 mph 18.4 mph N/A   Clear
12:55 PM 83.1 °F 85.9 °F 67.3 °F 59% 30.18 in 10.0 mi South 16.1 mph 19.6 mph N/A   Clear
1:15 PM 83.5 °F 85.5 °F 66.0 °F 55% 30.17 in 7.0 mi SSW 9.2 mph 18.4 mph N/A   Clear
1:35 PM 85.3 °F 87.6 °F 66.2 °F 53% 30.16 in 10.0 mi South 12.7 mph 18.4 mph N/A   Clear
1:55 PM 85.6 °F 87.1 °F 64.8 °F 49% 30.15 in 10.0 mi SW 13.8 mph - N/A   Clear
2:15 PM 86.9 °F 88.6 °F 64.9 °F 48% 30.14 in 10.0 mi SSW 12.7 mph 21.9 mph N/A   Clear
2:35 PM 87.4 °F 88.8 °F 64.2 °F 46% 30.13 in 10.0 mi SSW 12.7 mph 20.7 mph N/A   Clear
2:55 PM 88.0 °F 89.3 °F 64.0 °F 45% 30.12 in 10.0 mi SSW 13.8 mph 21.9 mph N/A   Clear
3:15 PM 88.7 °F 90.1 °F 64.0 °F 44% 30.11 in 10.0 mi SSW 13.8 mph 20.7 mph N/A   Clear
3:35 PM 88.2 °F 89.6 °F 64.2 °F 45% 30.10 in 10.0 mi South 9.2 mph 19.6 mph N/A   Clear
3:55 PM 89.1 °F 91.0 °F 65.5 °F 45% 30.09 in 10.0 mi South 13.8 mph - N/A   Scattered Clouds
4:15 PM 89.6 °F 90.8 °F 63.7 °F 42% 30.08 in 10.0 mi South 11.5 mph 18.4 mph N/A   Clear
4:35 PM 90.5 °F 92.2 °F 64.2 °F 42% 30.07 in 10.0 mi SSW 12.7 mph - N/A   Clear
4:55 PM 90.1 °F 91.6 °F 64.4 °F 42% 30.07 in 10.0 mi SSW 12.7 mph 24.2 mph N/A   Scattered Clouds
5:15 PM 90.7 °F 92.1 °F 63.9 °F 41% 30.06 in 10.0 mi South 13.8 mph 18.4 mph N/A   Scattered Clouds
5:35 PM 89.8 °F 90.7 °F 63.0 °F 41% 30.06 in 10.0 mi SSE 18.4 mph 23.0 mph N/A   Clear
5:55 PM 86.2 °F 88.2 °F 65.7 °F 50% 30.07 in 10.0 mi SSE 20.7 mph 27.6 mph N/A   Scattered Clouds
6:15 PM 85.5 °F 87.1 °F 64.8 °F 50% 30.07 in 10.0 mi SSE 18.4 mph 25.3 mph N/A   Clear
6:35 PM 86.0 °F 87.3 °F 64.0 °F 48% 30.06 in 10.0 mi SSE 19.6 mph 25.3 mph N/A   Clear
6:55 PM 86.2 °F 87.3 °F 63.5 °F 47% 30.05 in 10.0 mi SSE 21.9 mph 25.3 mph N/A   Clear
7:15 PM 85.5 °F 86.3 °F 63.0 °F 47% 30.04 in 10.0 mi South 19.6 mph 25.3 mph N/A   Clear
7:35 PM 84.6 °F 85.0 °F 61.9 °F 46% 30.04 in 10.0 mi South 19.6 mph 26.5 mph N/A   Clear
7:55 PM 83.1 °F 83.9 °F 62.2 °F 49% 30.05 in 10.0 mi South 20.7 mph 28.8 mph N/A   Clear
8:15 PM 81.9 °F 82.8 °F 62.2 °F 51% 30.06 in 10.0 mi South 18.4 mph 25.3 mph N/A   Clear
8:35 PM 81.1 °F 82.5 °F 63.5 °F 55% 30.06 in 10.0 mi South 19.6 mph 26.5 mph N/A   Clear
8:55 PM 80.1 °F 81.4 °F 62.4 °F 55% 30.05 in 10.0 mi South 21.9 mph 28.8 mph N/A   Clear
9:15 PM 78.8 °F - 62.6 °F 57% 30.05 in 10.0 mi South 18.4 mph 26.5 mph N/A   Clear
9:35 PM 77.5 °F - 62.6 °F 60% 30.06 in 10.0 mi South 18.4 mph 25.3 mph N/A   Clear
9:55 PM 76.3 °F - 63.0 °F 63% 30.06 in 10.0 mi SSW 16.1 mph - N/A   Clear
10:15 PM 75.4 °F - 59.9 °F 58% 30.06 in 10.0 mi SSW 12.7 mph 18.4 mph N/A   Clear
10:35 PM 73.4 °F - 61.2 °F 65% 30.07 in 10.0 mi SSW 5.8 mph - N/A   Clear
10:55 PM 71.8 °F - 62.4 °F 72% 30.07 in 10.0 mi SSE 8.1 mph - N/A   Clear
11:15 PM 73.9 °F - 62.8 °F 68% 30.08 in 10.0 mi South 9.2 mph - N/A   Clear
11:35 PM 72.5 °F - 63.5 °F 73% 30.08 in 10.0 mi SSE 5.8 mph - N/A   Clear
11:55 PM 73.4 °F - 63.9 °F 72% 30.08 in 10.0 mi SSE 6.9 mph - N/A   Clear